Location: Middlebury
(44.0153°N, 73.1678°W)
Time: 20:54:18
(UTC-04:00)

ISS - Pass Details

Date: 03 December 2021
Orbit: 414 x 423 km, 51.6° (Epoch: 31 March)

Event Time Altitude Azimuth Distance (km) Brightness Sun altitude
Rises 17:21:05 0° 298° (WNW) 2,457 0.8 -11.5°
Reaches altitude 10° 17:23:18 10° 291° (WNW) 1,564 -0.1 -11.9°
Maximum altitude 17:26:38 42° 219° (SW) 631 -2.4 -12.5°
Drops below altitude 10° 17:29:52 10° 147° (SSE) 1,511 -1.1 -13.0°
Sets 17:31:59 0° 140° (SE) 2,361 -0.2 -13.4°
Enters shadow 17:32:11 -1° 140° (SE) 2,442 -0.1 -13.4°
